[[{"header":{"parameterUnit":"m.s-1","parameterCategory":2,"la1":30.2991,"la2":30.254,"lo1":-89.0895,"lo2":-89.0444,"dy":0.0017,"dx":0.0017,"nx":28,"ny":28,"refTime":"2025-07-05T09:00:00:Z","depth":"0","parameterNumber":2,"parameterNumberName":"U-component_of_CURRENTS"},"data":[0,0,0,0,0,0,0,0,0,0,0,0,0,0,0,0,0,0,0,0,0,0,0,0,0,0,0,0,0,0,0,0,0,0,0,0,0,0,0,0,0,0,0,0,0,0,0,0,0,0,0,0,0,0,0,0,0,0,-0.2226,-0.2226,0,-0.2263,-0.2263,-0.2263,-0.2261,-0.226,-0.226,-0.226,-0.226,-0.226,-0.226,0,0,0,0,0,0,0,0,0,0,0,0,0,-0.2132,-0.2134,-0.2226,-0.2226,-0.2227,-0.2263,-0.2263,-0.2264,-0.2261,-0.226,-0.226,-0.2259,-0.2259,-0.226,-0.226,0,0,0,0,0,0,0,0,0,0,0,0,0,-0.217,-0.2134,-0.2226,-0.2231,-0.2232,-0.2263,-0.2263,-0.2264,-0.2261,-0.226,-0.226,-0.2259,-0.2259,-0.226,-0.226,-0.2276,0,0,-0.2262,-0.2262,0,0,0,0,0,0,0,0,-0.2168,-0.2173,-0.223,-0.2231,-0.2232,-0.2258,-0.223,-0.2266,-0.2261,-0.2248,-0.226,-0.2259,-0.2257,-0.2258,-0.2264,-0.2276,-0.2276,-0.2262,-0.2262,-0.2263,-0.2263,0,0,0,0,0,0,0,-0.2165,-0.2171,-0.2239,-0.223,-0.2232,-0.2225,-0.223,-0.2237,-0.2254,-0.2249,-0.225,-0.2257,-0.2257,-0.2264,-0.2264,-0.2276,-0.2262,-0.2263,-0.2263,-0.2263,-0.2248,-0.2247,0,0,0,0,0,0,-0.2166,-0.2169,-0.2238,-0.224,-0.22,-0.2227,-0.2232,-0.2249,-0.2254,-0.2255,-0.2257,-0.2256,-0.2263,-0.2264,-0.2264,-0.2226,-0.2263,-0.2263,-0.2264,-0.2249,-0.2248,-0.2247,0,0,0,0,0,0,-0.2164,-0.2172,-0.2236,-0.2206,-0.2214,-0.223,-0.2248,-0.225,-0.2256,-0.2261,-0.2261,-0.2261,-0.2263,-0.2263,-0.2263,-0.2228,-0.2263,-0.2264,-0.2249,-0.2248,-0.2247,-0.2186,0,0,0,0,0,0,-0.2161,-0.2172,-0.2177,-0.2207,-0.2216,-0.2248,-0.2249,-0.2251,-0.2262,-0.2261,-0.2264,-0.2264,-0.2262,-0.2262,-0.2263,-0.2229,-0.2264,-0.225,-0.2249,-0.2248,-0.2189,-0.2183,-0.2177,0,0,0,0,0,-0.2158,-0.2174,-0.2178,-0.2186,-0.2226,-0.2248,-0.2252,-0.226,-0.2263,-0.2263,-0.2263,-0.2264,-0.2253,-0.2262,-0.2264,-0.2229,-0.2251,-0.2249,-0.2248,-0.2191,-0.2184,-0.2178,0,0,0,0,0,0,-0.2143,-0.2176,-0.2181,-0.2208,-0.2222,-0.2248,-0.2253,-0.2262,-0.2265,-0.2264,-0.2265,-0.2264,-0.2246,-0.2256,-0.2266,-0.2221,-0.2248,-0.2247,-0.2204,-0.2198,-0.2192,-0.2165,-0.2265,0,0,0,0,0,-0.2142,-0.2154,-0.2186,-0.2202,-0.2214,-0.2233,-0.2243,-0.2251,-0.2262,-0.2263,-0.2262,-0.2257,-0.2242,-0.2236,-0.2232,-0.2219,-0.2206,-0.2196,-0.219,-0.2185,-0.2165,-0.2108,-0.2094,-0.2241,-0.2241,-0.2241,0,0,-0.2138,-0.2158,-0.2165,-0.2198,-0.2211,-0.2214,-0.2237,-0.2255,-0.2239,-0.2263,-0.224,-0.2243,-0.2237,-0.221,-0.2202,-0.2213,-0.2143,-0.2183,-0.2179,-0.2161,-0.2104,-0.209,-0.2077,-0.224,-0.224,-0.2241,0,0,-0.213,-0.2159,-0.2161,-0.2173,-0.2196,-0.2206,-0.221,-0.2234,-0.2227,-0.2223,-0.2218,-0.2192,-0.22,-0.216,-0.2147,-0.2111,-0.2117,-0.2125,-0.2069,-0.2014,-0.2001,-0.1989,-0.1976,-0.1963,-0.2118,-0.2118,-0.2118,0,-0.2119,-0.2129,-0.2163,-0.2166,-0.2163,-0.2198,-0.2188,-0.2191,-0.2204,-0.2181,-0.2208,-0.2161,-0.2159,-0.2086,-0.2075,-0.2091,-0.2089,-0.2094,-0.2004,-0.1991,-0.198,-0.197,-0.1956,-0.2115,-0.2115,-0.2116,-0.2116,0,-0.2107,-0.2112,-0.2117,-0.212,-0.2124,-0.2128,-0.2137,-0.213,-0.2134,-0.2125,-0.2075,-0.207,-0.2034,-0.2029,-0.2045,-0.1959,-0.1995,-0.2004,-0.2015,-0.1961,-0.1955,-0.1942,-0.211,-0.2112,-0.2113,-0.2113,0,0,-0.2077,-0.21,-0.2097,-0.2085,-0.2098,-0.2099,-0.2071,-0.2044,-0.2015,-0.2011,-0.1957,-0.1917,-0.1919,-0.1904,-0.1907,-0.1862,-0.1792,-0.1906,-0.1905,-0.1884,-0.1707,-0.1702,-0.1688,-0.1795,-0.1792,-0.1789,-0.1743,0,-0.2045,-0.2036,-0.205,-0.2019,-0.2012,-0.2021,-0.199,-0.1969,-0.1959,-0.1924,-0.1887,-0.1854,-0.187,-0.1862,-0.1809,-0.1811,-0.1753,-0.1806,-0.177,-0.1769,-0.1762,-0.167,-0.1588,-0.1535,-0.173,-0.1728,-0.1727,0,-0.2009,-0.2008,-0.1979,-0.1961,-0.1957,-0.1941,-0.1892,-0.1873,-0.1831,-0.1825,-0.1774,-0.1776,-0.1706,-0.174,-0.1657,-0.1702,-0.1686,-0.1681,-0.1679,-0.1679,-0.1738,-0.1617,-0.1505,-0.1386,-0.1707,-0.1709,-0.171,0,-0.1955,-0.1947,-0.1916,-0.1913,-0.1905,-0.1878,-0.1867,-0.1832,-0.1812,-0.1764,-0.1757,-0.168,-0.1666,-0.1612,-0.1615,-0.1636,-0.1547,-0.1569,-0.1534,-0.1537,-0.1457,-0.1457,-0.1209,-0.1468,-0.1468,-0.1468,-0.1468,0,-0.1902,-0.1876,-0.1893,-0.1878,-0.1836,-0.1841,-0.1793,-0.1777,-0.1753,-0.1727,-0.1705,-0.1679,-0.1635,-0.1599,-0.1583,-0.1525,-0.1508,-0.1492,-0.1498,-0.1439,-0.1437,-0.1327,-0.1326,-0.1466,-0.1466,-0.1467,-0.1467,0,-0.1834,-0.1851,-0.1821,-0.1815,-0.1813,-0.1781,-0.1774,-0.1751,-0.1736,-0.1706,-0.1696,-0.1669,-0.1623,-0.1584,-0.1518,-0.149,-0.1382,-0.1415,-0.1375,-0.1375,-0.1227,-0.1228,-0.1101,-0.1079,-0.1348,-0.1347,-0.1347,0,-0.1786,-0.1768,-0.1774,-0.1774,-0.1771,-0.1746,-0.174,-0.1734,-0.1726,-0.1704,-0.1694,-0.1649,-0.1606,-0.1514,-0.1442,-0.1367,-0.1336,-0.1262,-0.1252,-0.1165,-0.117,-0.1223,-0.1219,-0.114,-0.1137,-0.1135,-0.1134,0,-0.1688,-0.1704,-0.1696,-0.1711,-0.1711,-0.1708,-0.1707,-0.1702,-0.1703,-0.169,-0.1672,-0.1634,-0.1535,-0.1407,-0.1313,-0.1267,-0.1187,-0.1222,-0.1105,-0.0945,-0.1009,-0.101,-0.127,-0.1117,-0.1119,-0.112,-0.1121,-0.1121,-0.1608,-0.1594,-0.1615,-0.1617,-0.1645,-0.1666,-0.1618,-0.1649,-0.1635,-0.1568,-0.1615,-0.148,-0.1341,-0.1186,-0.1138,-0.0943,-0.1066,-0.0874,-0.0877,-0.0935,-0.0904,-0.1151,-0.1026,-0.1027,-0.1028,-0.1029,-0.103,0,-0.1479,-0.1502,-0.1519,-0.1533,-0.1542,-0.158,-0.1582,-0.1511,-0.1471,-0.1442,-0.1394,-0.1157,-0.1007,-0.0858,-0.0667,-0.0582,-0.0609,-0.0545,-0.0542,-0.0552,-0.0704,-0.0679,-0.0502,-0.0503,-0.0503,-0.0503,-0.0503,-0.0503,-0.1414,-0.1391,-0.1416,-0.1408,-0.1427,-0.1344,-0.1313,-0.1252,-0.1189,-0.1007,-0.0834,-0.0756,-0.0552,-0.0389,-0.0229,-0.0236,-0.0217,-0.0252,-0.0284,-0.0306,-0.0335,-0.0363,-0.033,-0.0083,-0.0083,-0.0106,-0.0106,-0.0106]},{"header":{"parameterUnit":"m.s-1","parameterCategory":2,"la1":30.2991,"la2":30.254,"lo1":-89.0895,"lo2":-89.0444,"dy":0.0017,"dx":0.0017,"nx":28,"ny":28,"refTime":"2025-07-05T09:00:00:Z","depth":"0","parameterNumber":3,"parameterNumberName":"V-component_of_CURRENTS"},"data":[0,0,0,0,0,0,0,0,0,0,0,0,0,0,0,0,0,0,0,0,0,0,0,0,0,0,0,0,0,0,0,0,0,0,0,0,0,0,0,0,0,0,0,0,0,0,0,0,0,0,0,0,0,0,0,0,0,0,-0.0679,-0.0679,0,-0.0652,-0.0651,-0.0651,-0.0658,-0.0658,-0.0659,-0.0659,-0.0575,-0.0572,-0.0569,0,0,0,0,0,0,0,0,0,0,0,0,0,-0.0648,-0.0649,-0.0679,-0.0679,-0.0678,-0.0652,-0.0651,-0.0651,-0.0658,-0.0658,-0.0659,-0.066,-0.0576,-0.0572,-0.0569,0,0,0,0,0,0,0,0,0,0,0,0,0,-0.0645,-0.0649,-0.0679,-0.0679,-0.0679,-0.0652,-0.0651,-0.0651,-0.0657,-0.0658,-0.0659,-0.066,-0.0577,-0.0573,-0.0569,-0.0526,0,0,-0.0556,-0.0554,0,0,0,0,0,0,0,0,-0.0645,-0.0646,-0.0679,-0.0679,-0.0679,-0.0659,-0.0609,-0.0606,-0.0657,-0.0665,-0.0659,-0.066,-0.0597,-0.0592,-0.0585,-0.0522,-0.0518,-0.0555,-0.0553,-0.0551,-0.055,0,0,0,0,0,0,0,-0.0646,-0.0647,-0.0668,-0.0679,-0.0678,-0.065,-0.0651,-0.0609,-0.0625,-0.0664,-0.0665,-0.0662,-0.0597,-0.0589,-0.0583,-0.0517,-0.0556,-0.0552,-0.0549,-0.0548,-0.0375,-0.0373,0,0,0,0,0,0,-0.0654,-0.0648,-0.0669,-0.0667,-0.0664,-0.065,-0.0651,-0.0664,-0.0627,-0.0623,-0.0662,-0.0663,-0.0596,-0.0587,-0.058,-0.0513,-0.0551,-0.0547,-0.0545,-0.0377,-0.0375,-0.0373,0,0,0,0,0,0,-0.0653,-0.0657,-0.067,-0.0656,-0.0656,-0.065,-0.0664,-0.0663,-0.0657,-0.0626,-0.062,-0.0657,-0.0596,-0.0585,-0.0531,-0.051,-0.0545,-0.0541,-0.038,-0.0377,-0.0374,-0.0388,0,0,0,0,0,0,-0.0653,-0.0657,-0.0665,-0.0657,-0.0657,-0.0651,-0.0663,-0.0662,-0.0654,-0.0655,-0.0619,-0.0612,-0.0596,-0.0538,-0.0527,-0.0505,-0.0538,-0.0382,-0.0378,-0.0375,-0.0391,-0.0386,-0.0382,0,0,0,0,0,-0.0652,-0.0659,-0.0666,-0.0668,-0.0671,-0.0651,-0.0647,-0.0645,-0.0653,-0.0644,-0.0615,-0.0614,-0.0506,-0.0533,-0.0521,-0.0497,-0.0384,-0.038,-0.0375,-0.0392,-0.0387,-0.0383,0,0,0,0,0,0,-0.0643,-0.066,-0.0668,-0.0679,-0.0666,-0.0652,-0.0643,-0.0642,-0.0614,-0.0613,-0.0589,-0.0578,-0.0523,-0.0498,-0.0529,-0.0432,-0.0443,-0.0436,-0.046,-0.0455,-0.0451,-0.0458,-0.0535,0,0,0,0,0,-0.0648,-0.0663,-0.066,-0.0667,-0.0661,-0.0651,-0.0643,-0.0641,-0.0617,-0.0608,-0.0581,-0.054,-0.0492,-0.0467,-0.0424,-0.0371,-0.0366,-0.0344,-0.034,-0.0337,-0.0331,-0.0306,-0.03,-0.0357,-0.0357,-0.0357,0,0,-0.0646,-0.0656,-0.0664,-0.0666,-0.0657,-0.0639,-0.0648,-0.0634,-0.0612,-0.0598,-0.0555,-0.0525,-0.0473,-0.0417,-0.039,-0.0397,-0.0318,-0.0331,-0.0329,-0.0325,-0.03,-0.0295,-0.0291,-0.0354,-0.0355,-0.0355,0,0,-0.0639,-0.0657,-0.0662,-0.0651,-0.0641,-0.0629,-0.0625,-0.0607,-0.0593,-0.0548,-0.0529,-0.0484,-0.0418,-0.0378,-0.0348,-0.0288,-0.0299,-0.0275,-0.0261,-0.0238,-0.0234,-0.023,-0.0232,-0.0229,-0.0273,-0.0273,-0.0273,0,-0.0633,-0.0648,-0.0654,-0.0645,-0.0633,-0.0624,-0.0608,-0.0583,-0.0548,-0.0529,-0.0532,-0.0435,-0.0394,-0.0323,-0.0302,-0.028,-0.0284,-0.0293,-0.0237,-0.0233,-0.0229,-0.0232,-0.0228,-0.0273,-0.0273,-0.0273,-0.0273,0,-0.063,-0.0632,-0.0627,-0.0621,-0.0603,-0.0588,-0.0558,-0.0534,-0.0518,-0.0498,-0.0435,-0.0385,-0.0333,-0.0306,-0.0285,-0.0229,-0.0247,-0.0241,-0.0262,-0.0225,-0.0229,-0.0225,-0.0273,-0.0273,-0.0273,-0.0273,0,0,-0.0644,-0.063,-0.0631,-0.0626,-0.0593,-0.0583,-0.0532,-0.0492,-0.0475,-0.0429,-0.0401,-0.0308,-0.0304,-0.0267,-0.0238,-0.0209,-0.0185,-0.0217,-0.0216,-0.0242,-0.016,-0.0217,-0.0218,-0.0185,-0.0184,-0.0183,-0.0182,0,-0.064,-0.0635,-0.0618,-0.0595,-0.0587,-0.0552,-0.0512,-0.0473,-0.0441,-0.0411,-0.0352,-0.0315,-0.0281,-0.0271,-0.023,-0.0199,-0.0172,-0.0188,-0.0171,-0.017,-0.0244,-0.0213,-0.0199,-0.0201,-0.0178,-0.0177,-0.0176,0,-0.0652,-0.0647,-0.0635,-0.0601,-0.0593,-0.0571,-0.0528,-0.049,-0.0432,-0.0409,-0.036,-0.0332,-0.0266,-0.0257,-0.018,-0.02,-0.0174,-0.0152,-0.0152,-0.0195,-0.0218,-0.0226,-0.0194,-0.0104,-0.017,-0.017,-0.0171,0,-0.0694,-0.0661,-0.0659,-0.0649,-0.0604,-0.0584,-0.0555,-0.0499,-0.0479,-0.0422,-0.042,-0.0336,-0.0318,-0.0256,-0.0202,-0.0197,-0.0144,-0.0132,-0.0155,-0.016,-0.0137,-0.0142,-0.0032,-0.0076,-0.0076,-0.0076,-0.0076,0,-0.0715,-0.071,-0.0685,-0.0689,-0.0682,-0.0628,-0.0616,-0.0573,-0.0527,-0.0516,-0.0437,-0.0421,-0.032,-0.0278,-0.0218,-0.0184,-0.0154,-0.015,-0.0157,-0.0143,-0.0149,-0.0061,-0.0026,-0.0076,-0.0076,-0.0076,-0.0076,0,-0.0763,-0.0748,-0.0751,-0.0719,-0.0711,-0.0713,-0.0676,-0.0668,-0.0611,-0.0598,-0.0587,-0.0496,-0.0434,-0.0348,-0.026,-0.0227,-0.0143,-0.0169,-0.0177,-0.0186,-0.0137,-0.0105,-0.0064,-0.0018,-0.0196,-0.0197,-0.0198,0,-0.078,-0.0792,-0.08,-0.0817,-0.0806,-0.0799,-0.0796,-0.0731,-0.0719,-0.0647,-0.0649,-0.0581,-0.0532,-0.0433,-0.0346,-0.0266,-0.0178,-0.0226,-0.0199,-0.013,-0.0097,-0.0096,-0.0058,-0.0173,-0.0174,-0.0174,-0.0175,0,-0.0808,-0.0828,-0.0841,-0.0886,-0.0901,-0.0908,-0.0891,-0.0892,-0.0815,-0.0783,-0.0731,-0.0685,-0.0591,-0.0494,-0.0404,-0.0337,-0.0178,-0.0241,-0.014,-0.0048,-0.0065,-0.0026,-0.0198,-0.0181,-0.018,-0.018,-0.0179,-0.0179,-0.0828,-0.0863,-0.0898,-0.0935,-0.0966,-0.0985,-0.0966,-0.094,-0.0906,-0.0786,-0.0796,-0.0637,-0.0576,-0.0439,-0.0386,-0.0225,-0.0234,-0.0157,-0.0119,-0.0122,-0.0081,-0.0295,-0.0309,-0.0309,-0.031,-0.031,-0.031,0,-0.0824,-0.0872,-0.0928,-0.0966,-0.0992,-0.1,-0.0997,-0.0932,-0.0865,-0.0736,-0.0665,-0.0461,-0.0411,-0.0277,-0.0157,-0.0088,-0.0046,-0.0023,0.0041,0.0079,-0.0069,-0.0069,-0.0067,-0.0067,-0.0067,-0.0067,-0.0067,-0.0067,-0.0823,-0.0876,-0.0913,-0.0956,-0.0977,-0.0956,-0.0937,-0.0847,-0.0719,-0.0446,-0.0207,-0.008,0.0053,0.0008,0.0125,0.0138,0.0243,0.018,0.0244,0.0208,0.0201,0.0194,0.0207,0.0266,0.0267,0.0402,0.0404,0.0405]}],[{"header":{"parameterUnit":"m.s-1","parameterCategory":2,"la1":30.2991,"la2":30.254,"lo1":-89.0895,"lo2":-89.0444,"dy":0.0017,"dx":0.0017,"nx":28,"ny":28,"refTime":"2025-07-05T09:00:00:Z","depth":"2","parameterNumber":2,"parameterNumberName":"U-component_of_CURRENTS"},"data":[0,0,0,0,0,0,0,0,0,0,0,0,0,0,0,0,0,0,0,0,0,0,0,0,0,0,0,0,0,0,0,0,0,0,0,0,0,0,0,0,0,0,0,0,0,0,0,0,0,0,0,0,0,0,0,0,0,0,-0.2281,-0.2282,0,-0.2316,-0.2316,-0.2316,-0.2308,-0.2308,-0.2307,-0.2307,-0.2297,-0.2297,-0.2298,0,0,0,0,0,0,0,0,0,0,0,0,0,-0.2194,-0.2196,-0.2281,-0.2282,-0.2282,-0.2316,-0.2316,-0.2316,-0.2308,-0.2308,-0.2307,-0.2307,-0.2297,-0.2297,-0.2298,0,0,0,0,0,0,0,0,0,0,0,0,0,-0.2229,-0.2196,-0.2281,-0.2284,-0.2285,-0.2316,-0.2316,-0.2316,-0.2309,-0.2308,-0.2307,-0.2306,-0.2297,-0.2297,-0.2298,-0.2314,0,0,-0.2298,-0.2299,0,0,0,0,0,0,0,0,-0.2227,-0.2232,-0.2283,-0.2284,-0.2285,-0.2309,-0.2282,-0.2314,-0.2309,-0.2298,-0.2307,-0.2306,-0.2299,-0.2299,-0.2305,-0.2313,-0.2313,-0.2298,-0.2299,-0.2299,-0.2299,0,0,0,0,0,0,0,-0.2225,-0.223,-0.2293,-0.2284,-0.2285,-0.2279,-0.2283,-0.2288,-0.2299,-0.2298,-0.2298,-0.2305,-0.2298,-0.2305,-0.2304,-0.2313,-0.2298,-0.2299,-0.2299,-0.2299,-0.2275,-0.2275,0,0,0,0,0,0,-0.2226,-0.2229,-0.2292,-0.2294,-0.2256,-0.2281,-0.2285,-0.23,-0.23,-0.2301,-0.2306,-0.2305,-0.2305,-0.2304,-0.2304,-0.226,-0.2299,-0.2299,-0.2299,-0.2276,-0.2275,-0.2274,0,0,0,0,0,0,-0.2224,-0.2232,-0.2291,-0.2263,-0.227,-0.2284,-0.23,-0.2301,-0.2306,-0.2307,-0.2306,-0.2309,-0.2304,-0.2304,-0.2298,-0.2262,-0.2299,-0.2299,-0.2277,-0.2276,-0.2275,-0.2212,0,0,0,0,0,0,-0.2222,-0.2231,-0.2236,-0.2263,-0.2272,-0.23,-0.2301,-0.2303,-0.2312,-0.2311,-0.2309,-0.2308,-0.2303,-0.2297,-0.2298,-0.2263,-0.23,-0.2278,-0.2276,-0.2275,-0.2215,-0.2209,-0.2204,0,0,0,0,0,-0.2219,-0.2232,-0.2236,-0.2243,-0.2281,-0.23,-0.2303,-0.2308,-0.2313,-0.231,-0.2308,-0.2308,-0.2288,-0.2298,-0.2299,-0.2262,-0.2279,-0.2277,-0.2275,-0.2218,-0.221,-0.2204,0,0,0,0,0,0,-0.2197,-0.2233,-0.2238,-0.2262,-0.2274,-0.2299,-0.2302,-0.2311,-0.2311,-0.231,-0.2308,-0.2306,-0.2283,-0.2291,-0.2302,-0.2252,-0.2279,-0.2278,-0.2235,-0.2228,-0.2223,-0.2195,-0.23,0,0,0,0,0,-0.2196,-0.2211,-0.2241,-0.2255,-0.2266,-0.2285,-0.2293,-0.23,-0.2308,-0.2308,-0.2303,-0.2295,-0.2278,-0.2269,-0.2263,-0.2246,-0.2229,-0.2222,-0.2216,-0.2211,-0.2189,-0.2133,-0.2119,-0.2268,-0.2268,-0.2268,0,0,-0.2189,-0.2211,-0.2218,-0.225,-0.2263,-0.2263,-0.2287,-0.2303,-0.2284,-0.2307,-0.2279,-0.228,-0.2272,-0.2241,-0.2231,-0.2242,-0.2162,-0.2208,-0.2204,-0.2185,-0.2129,-0.2114,-0.2101,-0.2267,-0.2267,-0.2268,0,0,-0.2177,-0.2206,-0.221,-0.2221,-0.2244,-0.2253,-0.2257,-0.2278,-0.2269,-0.2261,-0.2255,-0.2225,-0.223,-0.2187,-0.2174,-0.2134,-0.2136,-0.2149,-0.209,-0.2036,-0.2022,-0.201,-0.1977,-0.1963,-0.2141,-0.2141,-0.2141,0,-0.2153,-0.2172,-0.221,-0.2212,-0.2208,-0.2245,-0.2231,-0.2233,-0.224,-0.2216,-0.2243,-0.2191,-0.2187,-0.2111,-0.2098,-0.2113,-0.2106,-0.2116,-0.2025,-0.2013,-0.2001,-0.1971,-0.1955,-0.2138,-0.2138,-0.2139,-0.2139,0,-0.2146,-0.215,-0.2155,-0.2161,-0.2162,-0.2163,-0.2171,-0.2162,-0.2166,-0.2155,-0.2102,-0.2094,-0.2055,-0.205,-0.2066,-0.1978,-0.2007,-0.2027,-0.2038,-0.1982,-0.1954,-0.1939,-0.2133,-0.2134,-0.2135,-0.2136,0,0,-0.2103,-0.2137,-0.2133,-0.2119,-0.2133,-0.2131,-0.2101,-0.207,-0.2039,-0.2033,-0.1975,-0.1934,-0.1936,-0.192,-0.1923,-0.1878,-0.1798,-0.1925,-0.1924,-0.1883,-0.1699,-0.1656,-0.1636,-0.1814,-0.1811,-0.1808,-0.1715,0,-0.2068,-0.2058,-0.2081,-0.2044,-0.2034,-0.2044,-0.2009,-0.1986,-0.1976,-0.1936,-0.19,-0.1867,-0.1885,-0.1878,-0.1823,-0.1825,-0.1756,-0.1822,-0.1767,-0.1765,-0.1724,-0.1614,-0.1473,-0.1371,-0.1701,-0.1698,-0.1696,0,-0.2038,-0.2036,-0.2004,-0.1978,-0.1973,-0.1956,-0.1903,-0.1882,-0.1837,-0.183,-0.178,-0.1783,-0.1712,-0.1751,-0.1657,-0.1713,-0.1683,-0.1674,-0.1671,-0.1634,-0.1691,-0.1479,-0.1332,-0.1671,-0.1673,-0.1675,-0.1677,0,-0.1982,-0.1969,-0.1937,-0.1932,-0.1919,-0.1892,-0.188,-0.1842,-0.18,-0.1772,-0.174,-0.1683,-0.1646,-0.161,-0.158,-0.1632,-0.1483,-0.1551,-0.1461,-0.146,-0.1325,-0.1316,-0.1431,-0.1431,-0.1432,-0.1432,-0.1432,0,-0.1928,-0.1897,-0.1915,-0.1899,-0.1839,-0.1857,-0.179,-0.1775,-0.1737,-0.1661,-0.1684,-0.1602,-0.161,-0.1535,-0.1535,-0.1433,-0.143,-0.1408,-0.1408,-0.1303,-0.1293,-0.1552,-0.1567,-0.1428,-0.1429,-0.143,-0.143,0,-0.1854,-0.1877,-0.183,-0.1821,-0.1815,-0.1772,-0.1731,-0.1672,-0.1676,-0.1582,-0.157,-0.152,-0.1449,-0.1427,-0.1361,-0.1345,-0.1287,-0.1237,-0.1124,-0.1111,-0.1325,-0.1339,-0.1158,-0.1155,-0.1153,-0.1151,-0.1149,0,-0.1803,-0.1785,-0.1763,-0.1726,-0.1718,-0.1675,-0.1625,-0.1629,-0.1568,-0.1503,-0.1432,-0.1364,-0.1264,-0.1161,-0.1128,-0.1081,-0.1158,-0.0931,-0.0984,-0.1266,-0.1285,-0.1303,-0.1319,-0.079,-0.0786,-0.0782,-0.0779,0,-0.1695,-0.1702,-0.1672,-0.1622,-0.1571,-0.15,-0.1451,-0.1405,-0.1388,-0.1336,-0.1235,-0.1171,-0.1045,-0.0929,-0.0872,-0.0833,-0.0951,-0.0857,-0.1114,-0.0897,-0.0915,-0.0937,-0.0965,-0.0746,-0.075,-0.0752,-0.0754,-0.0755,-0.1597,-0.156,-0.1553,-0.1484,-0.1438,-0.1356,-0.1261,-0.1246,-0.1181,-0.1108,-0.1067,-0.0946,-0.0839,-0.0711,-0.064,-0.0618,-0.072,-0.0699,-0.0712,-0.0728,-0.0717,-0.073,-0.0526,-0.0528,-0.053,-0.0531,-0.0532,0,-0.1464,-0.1462,-0.1409,-0.135,-0.1271,-0.127,-0.1148,-0.1058,-0.0991,-0.0966,-0.0901,-0.0671,-0.0552,-0.0494,-0.0404,-0.0383,-0.0388,-0.0367,-0.0376,-0.0406,-0.0433,-0.0411,-0.0137,-0.0137,-0.0136,-0.0136,0,0,-0.1398,-0.1342,-0.1337,-0.1218,-0.1165,-0.1001,-0.0903,-0.0829,-0.0773,-0.0706,-0.0645,-0.0612,-0.0496,-0.0355,-0.0276,-0.0216,-0.0326,-0.0184,-0.0488,-0.053,-0.0559,-0.0591,-0.0585,0,0,0,0,0]},{"header":{"parameterUnit":"m.s-1","parameterCategory":2,"la1":30.2991,"la2":30.254,"lo1":-89.0895,"lo2":-89.0444,"dy":0.0017,"dx":0.0017,"nx":28,"ny":28,"refTime":"2025-07-05T09:00:00:Z","depth":"2","parameterNumber":3,"parameterNumberName":"V-component_of_CURRENTS"},"data":[0,0,0,0,0,0,0,0,0,0,0,0,0,0,0,0,0,0,0,0,0,0,0,0,0,0,0,0,0,0,0,0,0,0,0,0,0,0,0,0,0,0,0,0,0,0,0,0,0,0,0,0,0,0,0,0,0,0,-0.0475,-0.0475,0,-0.0445,-0.0445,-0.0444,-0.0443,-0.0443,-0.0443,-0.0444,-0.0355,-0.0352,-0.0349,0,0,0,0,0,0,0,0,0,0,0,0,0,-0.0384,-0.0387,-0.0475,-0.0475,-0.0475,-0.0445,-0.0445,-0.0444,-0.0443,-0.0443,-0.0443,-0.0444,-0.0356,-0.0352,-0.0349,0,0,0,0,0,0,0,0,0,0,0,0,0,-0.0396,-0.0387,-0.0475,-0.047,-0.047,-0.0445,-0.0445,-0.0444,-0.0442,-0.0443,-0.0444,-0.0444,-0.0357,-0.0353,-0.0349,-0.0312,0,0,-0.0336,-0.0335,0,0,0,0,0,0,0,0,-0.0395,-0.0399,-0.0472,-0.0471,-0.047,-0.0448,-0.038,-0.0397,-0.0442,-0.0452,-0.0444,-0.0444,-0.038,-0.0374,-0.0368,-0.0308,-0.0304,-0.0336,-0.0333,-0.0332,-0.0331,0,0,0,0,0,0,0,-0.0395,-0.0399,-0.0463,-0.0471,-0.047,-0.0419,-0.0423,-0.0383,-0.0412,-0.0452,-0.0451,-0.0448,-0.038,-0.0372,-0.0366,-0.0303,-0.0336,-0.0332,-0.033,-0.0328,-0.0193,-0.0192,0,0,0,0,0,0,-0.0407,-0.04,-0.0464,-0.0462,-0.0434,-0.0421,-0.0425,-0.0454,-0.0414,-0.0409,-0.0448,-0.0448,-0.0379,-0.037,-0.0362,-0.0314,-0.0332,-0.0328,-0.0326,-0.0194,-0.0193,-0.0191,0,0,0,0,0,0,-0.0406,-0.0414,-0.0465,-0.0428,-0.0431,-0.0423,-0.0455,-0.0454,-0.0449,-0.0412,-0.0406,-0.0446,-0.0379,-0.0368,-0.0323,-0.031,-0.0326,-0.0322,-0.0195,-0.0194,-0.0192,-0.0218,0,0,0,0,0,0,-0.0404,-0.0415,-0.0439,-0.043,-0.0434,-0.0455,-0.0455,-0.0453,-0.0446,-0.0446,-0.0407,-0.04,-0.0378,-0.033,-0.0319,-0.0305,-0.0319,-0.0197,-0.0195,-0.0193,-0.0218,-0.0217,-0.0216,0,0,0,0,0,-0.0401,-0.0431,-0.0442,-0.0449,-0.047,-0.0455,-0.0451,-0.0445,-0.0445,-0.0443,-0.0412,-0.0401,-0.0309,-0.0325,-0.0313,-0.0298,-0.0198,-0.0195,-0.0193,-0.0219,-0.0217,-0.0216,0,0,0,0,0,0,-0.0413,-0.0433,-0.0445,-0.0485,-0.0473,-0.0455,-0.045,-0.0445,-0.042,-0.0418,-0.0386,-0.0375,-0.0332,-0.0306,-0.0325,-0.025,-0.0251,-0.0246,-0.0275,-0.0273,-0.0272,-0.0273,-0.0316,0,0,0,0,0,-0.0427,-0.0452,-0.0455,-0.0483,-0.0478,-0.0464,-0.0457,-0.0453,-0.0429,-0.042,-0.0391,-0.0352,-0.031,-0.0287,-0.0249,-0.0205,-0.0172,-0.0186,-0.0185,-0.0184,-0.0176,-0.0142,-0.0138,-0.0183,-0.0183,-0.0183,0,0,-0.0437,-0.0452,-0.0466,-0.0485,-0.0475,-0.0464,-0.0461,-0.0451,-0.0435,-0.041,-0.0376,-0.0347,-0.0297,-0.0253,-0.0231,-0.0231,-0.0146,-0.0181,-0.0181,-0.0172,-0.0139,-0.0135,-0.0131,-0.0181,-0.0182,-0.0182,0,0,-0.0448,-0.0483,-0.0495,-0.0487,-0.0478,-0.0465,-0.0464,-0.0445,-0.043,-0.0395,-0.037,-0.0331,-0.0274,-0.0235,-0.0207,-0.0171,-0.0144,-0.0162,-0.0155,-0.0123,-0.012,-0.0116,-0.0041,-0.003,-0.016,-0.016,-0.0161,0,-0.0451,-0.0487,-0.0491,-0.049,-0.048,-0.0467,-0.0457,-0.0436,-0.0404,-0.0383,-0.0387,-0.0298,-0.0261,-0.0197,-0.0187,-0.0169,-0.0138,-0.0171,-0.0124,-0.012,-0.0116,-0.004,-0.0028,-0.0161,-0.0161,-0.0161,-0.0161,0,-0.047,-0.0487,-0.0487,-0.0487,-0.0473,-0.0464,-0.0436,-0.0416,-0.0398,-0.0378,-0.0322,-0.0276,-0.0224,-0.0207,-0.0184,-0.0132,-0.0112,-0.0132,-0.0135,-0.0114,-0.0033,-0.0021,-0.0163,-0.0162,-0.0162,-0.0162,0,0,-0.0502,-0.0499,-0.0501,-0.0493,-0.0472,-0.0461,-0.0425,-0.0389,-0.0362,-0.0333,-0.0292,-0.0226,-0.0214,-0.018,-0.015,-0.0118,-0.0054,-0.0117,-0.0115,-0.0053,0.0047,0.0008,0.0018,-0.0082,-0.0081,-0.008,0.0102,0,-0.0509,-0.0514,-0.0505,-0.0487,-0.048,-0.0447,-0.0412,-0.0376,-0.0342,-0.03,-0.0252,-0.0209,-0.0199,-0.0179,-0.0144,-0.0079,-0.0027,-0.0098,0.0028,0.0034,-0.0016,0.0028,0.0005,0.0158,0.0114,0.0116,0.0118,0,-0.0537,-0.0533,-0.0528,-0.0485,-0.0477,-0.046,-0.0405,-0.0373,-0.0308,-0.028,-0.0236,-0.0205,-0.0131,-0.0146,-0.0017,-0.007,-0.0006,0.0039,0.0046,0.0025,0.0016,0.0126,0.0183,0.0139,0.0137,0.0136,0.0134,0,-0.0572,-0.0547,-0.0544,-0.0535,-0.0487,-0.0466,-0.0436,-0.0375,-0.0308,-0.0276,-0.0214,-0.0171,-0.0094,-0.0053,0.0056,0.0012,0.02,0.015,0.019,0.0191,0.0206,0.0203,0.0243,0.0243,0.0242,0.0242,0.0241,0,-0.0596,-0.0589,-0.0561,-0.0562,-0.0506,-0.0493,-0.042,-0.0386,-0.0308,-0.0217,-0.0208,-0.0115,-0.007,0.0043,0.0083,0.0197,0.0231,0.0213,0.0228,0.0199,0.0194,0.0192,0.0184,0.0249,0.0247,0.0246,0.0245,0,-0.0629,-0.0624,-0.0592,-0.0549,-0.052,-0.0485,-0.0361,-0.0303,-0.0258,-0.0136,-0.0119,-0.0019,0.0074,0.015,0.0258,0.0275,0.0345,0.0383,0.0366,0.0372,0.031,0.0299,0.0419,0.0419,0.0419,0.0419,0.0419,0,-0.0641,-0.0647,-0.057,-0.052,-0.0492,-0.0421,-0.0346,-0.0275,-0.0202,-0.0066,0.0002,0.0112,0.0164,0.0315,0.0337,0.0396,0.0415,0.0445,0.0328,0.0323,0.0326,0.0314,0.0304,0.0376,0.0376,0.0375,0.0375,0,-0.0654,-0.0636,-0.0605,-0.0503,-0.042,-0.0296,-0.0207,-0.0136,-0.0055,0.0017,0.0103,0.0125,0.0245,0.027,0.0353,0.0376,0.0402,0.0435,0.0473,0.0297,0.0285,0.0286,0.0277,0.0373,0.0373,0.0373,0.0373,0.0373,-0.0641,-0.0619,-0.0585,-0.0476,-0.0372,-0.0241,-0.0173,-0.0091,-0.0006,0.0064,0.0147,0.0195,0.0228,0.0284,0.0322,0.0376,0.0362,0.038,0.0381,0.0382,0.0306,0.029,0.0369,0.0369,0.037,0.037,0.037,0,-0.0631,-0.0628,-0.0553,-0.0436,-0.0336,-0.027,-0.013,-0.0092,-0.0062,0.0079,0.0114,0.0178,0.0214,0.0275,0.0326,0.0322,0.0306,0.0343,0.0334,0.0337,0.0339,0.026,0.0313,0.0313,0.0313,0.0312,0,0,-0.0629,-0.061,-0.0588,-0.0457,-0.0377,-0.0281,-0.0229,-0.0164,-0.0066,0.0015,0.0102,0.0188,0.0253,0.0282,0.0285,0.032,0.0323,0.0311,0.0356,0.0347,0.035,0.036,0.024,0,0,0,0,0]}],[{"header":{"parameterUnit":"m.s-1","parameterCategory":2,"la1":30.2991,"la2":30.254,"lo1":-89.0895,"lo2":-89.0444,"dy":0.0017,"dx":0.0017,"nx":28,"ny":28,"refTime":"2025-07-05T09:00:00:Z","depth":"4","parameterNumber":2,"parameterNumberName":"U-component_of_CURRENTS"},"data":[0,0,0,0,0,0,0,0,0,0,0,0,0,0,0,0,0,0,0,0,0,0,0,0,0,0,0,0,0,0,0,0,0,0,0,0,0,0,0,0,0,0,0,0,0,0,0,0,0,0,0,0,0,0,0,0,0,0,-0.0684,-0.0684,0,-0.0758,-0.0759,-0.076,-0.0821,-0.0821,-0.0822,-0.0822,-0.0797,-0.0796,-0.0794,0,0,0,0,0,0,0,0,0,0,0,0,0,-0.0618,-0.0619,-0.0684,-0.0684,-0.0685,-0.0758,-0.0759,-0.076,-0.0821,-0.0821,-0.0822,-0.0822,-0.0797,-0.0796,-0.0794,0,0,0,0,0,0,0,0,0,0,0,0,0,-0.0666,-0.0619,-0.0683,-0.0723,-0.0727,-0.0758,-0.0759,-0.076,-0.082,-0.0821,-0.0822,-0.0823,-0.0798,-0.0796,-0.0794,-0.0768,0,0,-0.0789,-0.0788,0,0,0,0,0,0,0,0,-0.0663,-0.0669,-0.0716,-0.072,-0.0725,-0.078,-0.0727,-0.0758,-0.082,-0.0786,-0.0822,-0.0823,-0.078,-0.078,-0.0796,-0.0767,-0.0766,-0.0789,-0.0788,-0.0787,-0.0787,0,0,0,0,0,0,0,-0.066,-0.0666,-0.0714,-0.0717,-0.0722,-0.0745,-0.0753,-0.0734,-0.0777,-0.0789,-0.0794,-0.08,-0.0782,-0.0797,-0.0795,-0.0766,-0.0789,-0.0787,-0.0786,-0.0786,-0.094,-0.0945,0,0,0,0,0,0,-0.0646,-0.0663,-0.0712,-0.0717,-0.0694,-0.0746,-0.0754,-0.0762,-0.078,-0.0784,-0.0799,-0.0802,-0.08,-0.0797,-0.0794,-0.088,-0.0787,-0.0785,-0.0784,-0.0935,-0.0941,-0.0947,0,0,0,0,0,0,-0.0644,-0.065,-0.0709,-0.069,-0.0699,-0.0746,-0.0755,-0.0763,-0.0799,-0.0788,-0.079,-0.0828,-0.08,-0.0797,-0.0832,-0.0875,-0.0785,-0.0783,-0.0929,-0.0937,-0.0944,-0.0976,0,0,0,0,0,0,-0.0642,-0.0649,-0.0663,-0.0689,-0.07,-0.0746,-0.0754,-0.0764,-0.08,-0.0805,-0.0812,-0.081,-0.0801,-0.0835,-0.083,-0.0871,-0.0782,-0.0923,-0.0933,-0.0942,-0.0969,-0.0984,-0.0997,0,0,0,0,0,-0.064,-0.0653,-0.0663,-0.067,-0.0713,-0.0746,-0.0755,-0.0791,-0.08,-0.0825,-0.0853,-0.0811,-0.0895,-0.0836,-0.083,-0.087,-0.0918,-0.093,-0.0941,-0.0962,-0.0981,-0.0997,0,0,0,0,0,0,-0.0648,-0.0661,-0.0673,-0.0695,-0.0726,-0.0757,-0.0779,-0.0799,-0.0841,-0.0851,-0.0841,-0.0842,-0.0897,-0.0897,-0.0833,-0.0962,-0.0913,-0.0924,-0.0932,-0.0949,-0.0963,-0.0947,-0.078,0,0,0,0,0,-0.065,-0.0657,-0.0683,-0.0705,-0.0716,-0.0749,-0.0771,-0.0798,-0.0829,-0.085,-0.0869,-0.0906,-0.0938,-0.0951,-0.0978,-0.1016,-0.0957,-0.106,-0.1075,-0.1086,-0.1081,-0.1049,-0.1055,-0.0985,-0.0985,-0.0985,0,0,-0.0648,-0.0668,-0.0666,-0.0706,-0.0728,-0.0747,-0.0766,-0.0805,-0.083,-0.0835,-0.0893,-0.0939,-0.0963,-0.1028,-0.1055,-0.1028,-0.1076,-0.1101,-0.1108,-0.1097,-0.1061,-0.1066,-0.1071,-0.0993,-0.0991,-0.099,0,0,-0.065,-0.0676,-0.0676,-0.0706,-0.0748,-0.0766,-0.0779,-0.0833,-0.0868,-0.0928,-0.0956,-0.1026,-0.1078,-0.1109,-0.1125,-0.1233,-0.1149,-0.128,-0.1324,-0.1294,-0.1296,-0.1298,-0.1198,-0.1191,-0.1289,-0.1289,-0.1289,0,-0.0671,-0.0653,-0.0687,-0.071,-0.0723,-0.077,-0.0778,-0.0822,-0.0894,-0.0914,-0.0959,-0.1089,-0.1107,-0.1165,-0.1243,-0.1251,-0.1211,-0.1235,-0.13,-0.1301,-0.1302,-0.12,-0.1191,-0.1292,-0.1292,-0.1292,-0.1291,0,-0.0664,-0.0659,-0.0667,-0.0694,-0.0729,-0.0743,-0.0797,-0.0853,-0.0909,-0.0946,-0.1049,-0.113,-0.1215,-0.1255,-0.1281,-0.1339,-0.1297,-0.1305,-0.1226,-0.1309,-0.1199,-0.1188,-0.1297,-0.1295,-0.1295,-0.1294,0,0,-0.0677,-0.0658,-0.0665,-0.0658,-0.0713,-0.0745,-0.079,-0.0827,-0.085,-0.0982,-0.1016,-0.1164,-0.1249,-0.1283,-0.1352,-0.1354,-0.1329,-0.1362,-0.1359,-0.1207,-0.122,-0.1174,-0.1157,-0.1353,-0.1353,-0.1353,-0.1123,0,-0.0655,-0.0664,-0.0659,-0.0663,-0.066,-0.0712,-0.0745,-0.0808,-0.0869,-0.0926,-0.1037,-0.1118,-0.1246,-0.132,-0.1357,-0.1339,-0.1314,-0.1387,-0.1212,-0.1205,-0.1109,-0.1149,-0.1352,-0.1115,-0.1113,-0.1111,-0.1109,0,-0.0621,-0.0639,-0.063,-0.0622,-0.0628,-0.0651,-0.0708,-0.0758,-0.0832,-0.0888,-0.1016,-0.1094,-0.1195,-0.1271,-0.1286,-0.1338,-0.1301,-0.1264,-0.1254,-0.1192,-0.1144,-0.1033,-0.109,-0.1091,-0.1093,-0.1094,-0.1095,0,-0.0593,-0.0592,-0.0579,-0.0591,-0.0621,-0.0636,-0.0676,-0.0751,-0.077,-0.0886,-0.0901,-0.1045,-0.1094,-0.1134,-0.117,-0.1222,-0.1094,-0.1127,-0.1023,-0.1014,-0.1098,-0.1099,-0.1075,-0.1076,-0.1076,-0.1077,-0.1078,0,-0.0539,-0.0529,-0.0569,-0.0573,-0.0574,-0.0638,-0.065,-0.0707,-0.076,-0.0767,-0.092,-0.0945,-0.1068,-0.1045,-0.1092,-0.1033,-0.1038,-0.1015,-0.0967,-0.1118,-0.1125,-0.1086,-0.109,-0.1068,-0.107,-0.1072,-0.1073,0,-0.0483,-0.0498,-0.048,-0.0525,-0.0542,-0.0572,-0.0606,-0.0618,-0.0695,-0.0706,-0.0745,-0.0814,-0.0826,-0.0874,-0.0847,-0.0879,-0.0842,-0.0798,-0.0896,-0.0858,-0.0784,-0.0794,-0.0647,-0.0644,-0.0641,-0.0639,-0.0637,0,-0.0449,-0.0439,-0.0457,-0.0453,-0.0462,-0.0513,-0.0526,-0.0597,-0.0607,-0.0635,-0.062,-0.0614,-0.068,-0.0577,-0.0666,-0.0662,-0.0689,-0.0625,-0.0797,-0.0779,-0.0746,-0.0761,-0.0774,-0.0633,-0.0632,-0.0631,-0.063,0,-0.0396,-0.0394,-0.0395,-0.0391,-0.0391,-0.0404,-0.0439,-0.0425,-0.0509,-0.0524,-0.0506,-0.0522,-0.0472,-0.0525,-0.0495,-0.0527,-0.0671,-0.0598,-0.0606,-0.0766,-0.076,-0.0733,-0.075,-0.0621,-0.0622,-0.0623,-0.0624,0,-0.0359,-0.0339,-0.0334,-0.0322,-0.0317,-0.0322,-0.0347,-0.0364,-0.038,-0.042,-0.0393,-0.0425,-0.0438,-0.0443,-0.0446,-0.0455,-0.0488,-0.051,-0.0523,-0.0534,-0.0626,-0.061,-0.0366,0,0,0,0,0,-0.0332,-0.0299,-0.0273,-0.0259,-0.0248,-0.0266,-0.0293,-0.0333,-0.0376,-0.0342,-0.0379,-0.0368,-0.0376,-0.0389,-0.0384,-0.0415,-0.0494,-0.0408,-0.0528,-0.0569,-0.058,-0.0712,0,0,0,0,0,0,-0.0308,-0.0279,-0.0257,-0.0216,-0.0207,-0.0215,-0.0244,-0.028,-0.0286,-0.0319,-0.0326,-0.034,-0.0357,-0.0367,-0.0372,-0.0377,-0.0447,-0.0421,-0.0421,-0.0563,-0.0573,-0.0582,-0.0721,0,0,0,0,0]},{"header":{"parameterUnit":"m.s-1","parameterCategory":2,"la1":30.2991,"la2":30.254,"lo1":-89.0895,"lo2":-89.0444,"dy":0.0017,"dx":0.0017,"nx":28,"ny":28,"refTime":"2025-07-05T09:00:00:Z","depth":"4","parameterNumber":3,"parameterNumberName":"V-component_of_CURRENTS"},"data":[0,0,0,0,0,0,0,0,0,0,0,0,0,0,0,0,0,0,0,0,0,0,0,0,0,0,0,0,0,0,0,0,0,0,0,0,0,0,0,0,0,0,0,0,0,0,0,0,0,0,0,0,0,0,0,0,0,0,-0.016,-0.0161,0,-0.0189,-0.0189,-0.0189,-0.0153,-0.0151,-0.015,-0.0149,-0.0206,-0.0208,-0.0211,0,0,0,0,0,0,0,0,0,0,0,0,0,-0.0095,-0.0097,-0.016,-0.0161,-0.0161,-0.0189,-0.0189,-0.0189,-0.0153,-0.0151,-0.015,-0.0148,-0.0205,-0.0208,-0.0211,0,0,0,0,0,0,0,0,0,0,0,0,0,-0.0123,-0.0097,-0.016,-0.0146,-0.0146,-0.0188,-0.0189,-0.0189,-0.0153,-0.0151,-0.0149,-0.0148,-0.0204,-0.0208,-0.0212,-0.0276,0,0,-0.0224,-0.0226,0,0,0,0,0,0,0,0,-0.0122,-0.0126,-0.0148,-0.0148,-0.0147,-0.0165,-0.0187,-0.022,-0.0154,-0.015,-0.0149,-0.0147,-0.0196,-0.0201,-0.021,-0.0279,-0.0281,-0.0224,-0.0227,-0.0229,-0.023,0,0,0,0,0,0,0,-0.012,-0.0124,-0.0171,-0.0149,-0.0148,-0.0146,-0.0147,-0.0193,-0.0184,-0.015,-0.0148,-0.0152,-0.0196,-0.0206,-0.0211,-0.0282,-0.0224,-0.0228,-0.023,-0.0232,-0.034,-0.0341,0,0,0,0,0,0,-0.0118,-0.0123,-0.017,-0.0172,-0.0129,-0.0148,-0.015,-0.0161,-0.0183,-0.0184,-0.0154,-0.015,-0.02,-0.0206,-0.0213,-0.0278,-0.0229,-0.0232,-0.0235,-0.034,-0.034,-0.0341,0,0,0,0,0,0,-0.0117,-0.0123,-0.0169,-0.0148,-0.0153,-0.0152,-0.0164,-0.0163,-0.0165,-0.0185,-0.0186,-0.0156,-0.0199,-0.0207,-0.0238,-0.028,-0.0234,-0.0238,-0.0339,-0.034,-0.034,-0.0417,0,0,0,0,0,0,-0.0115,-0.0122,-0.0129,-0.0148,-0.0155,-0.0199,-0.0166,-0.0165,-0.0171,-0.0167,-0.0189,-0.0192,-0.0198,-0.0232,-0.0242,-0.0285,-0.0241,-0.0339,-0.034,-0.034,-0.0414,-0.042,-0.0426,0,0,0,0,0,-0.0113,-0.0139,-0.013,-0.0135,-0.0165,-0.02,-0.0204,-0.0195,-0.0173,-0.0187,-0.0186,-0.0191,-0.0243,-0.0236,-0.0248,-0.0293,-0.0338,-0.0339,-0.034,-0.0411,-0.0419,-0.0425,0,0,0,0,0,0,-0.0118,-0.0139,-0.0128,-0.0159,-0.0176,-0.0193,-0.0208,-0.02,-0.0212,-0.0206,-0.0208,-0.0213,-0.0258,-0.0257,-0.0248,-0.0319,-0.0289,-0.0292,-0.0338,-0.0346,-0.0352,-0.035,-0.0245,0,0,0,0,0,-0.0123,-0.0144,-0.0161,-0.0185,-0.0195,-0.02,-0.0211,-0.021,-0.0223,-0.0224,-0.0239,-0.0249,-0.0275,-0.0292,-0.0316,-0.0367,-0.034,-0.0395,-0.0401,-0.0406,-0.0409,-0.0388,-0.0393,-0.0344,-0.0344,-0.0344,0,0,-0.0133,-0.0146,-0.0159,-0.0187,-0.0198,-0.0232,-0.0202,-0.023,-0.0263,-0.0234,-0.0282,-0.0281,-0.0291,-0.034,-0.0359,-0.0343,-0.0406,-0.0407,-0.0412,-0.0412,-0.039,-0.0395,-0.0399,-0.0344,-0.0344,-0.0344,0,0,-0.0175,-0.0175,-0.0209,-0.0226,-0.0248,-0.0258,-0.0265,-0.0289,-0.0301,-0.0349,-0.0327,-0.0339,-0.0394,-0.0398,-0.0409,-0.0461,-0.0439,-0.047,-0.0507,-0.0488,-0.0492,-0.0495,-0.0471,-0.0471,-0.0471,-0.0472,-0.0472,0,-0.018,-0.0221,-0.0225,-0.0261,-0.0277,-0.0271,-0.0311,-0.0338,-0.0368,-0.0382,-0.0373,-0.0417,-0.0425,-0.0467,-0.0475,-0.048,-0.0454,-0.0487,-0.0497,-0.0499,-0.0501,-0.0475,-0.0475,-0.0475,-0.0475,-0.0474,-0.0474,0,-0.0243,-0.0274,-0.0297,-0.0335,-0.036,-0.0392,-0.0424,-0.0451,-0.0461,-0.0476,-0.0521,-0.0524,-0.0537,-0.0548,-0.0535,-0.0557,-0.053,-0.0509,-0.0483,-0.0511,-0.0481,-0.048,-0.0481,-0.0479,-0.0478,-0.0477,0,0,-0.0257,-0.0325,-0.0332,-0.0353,-0.0396,-0.0422,-0.0485,-0.0528,-0.0546,-0.059,-0.062,-0.066,-0.0634,-0.0641,-0.0624,-0.0609,-0.0603,-0.0566,-0.0563,-0.0549,-0.0551,-0.0471,-0.0461,-0.0581,-0.0581,-0.0581,-0.0527,0,-0.0297,-0.0365,-0.0398,-0.0463,-0.0493,-0.0513,-0.0566,-0.0604,-0.0625,-0.0654,-0.0671,-0.0692,-0.0682,-0.0674,-0.0668,-0.0607,-0.06,-0.0619,-0.0519,-0.0516,-0.0448,-0.0457,-0.0581,-0.0525,-0.0525,-0.0524,-0.0524,0,-0.0344,-0.0378,-0.0445,-0.0505,-0.0521,-0.0565,-0.0608,-0.0661,-0.0701,-0.0716,-0.0739,-0.0732,-0.0735,-0.0713,-0.0661,-0.0669,-0.0623,-0.0582,-0.0578,-0.0474,-0.0432,-0.0488,-0.052,-0.052,-0.052,-0.0521,-0.0521,0,-0.0332,-0.0413,-0.0458,-0.0478,-0.0549,-0.0586,-0.0628,-0.0672,-0.0697,-0.0743,-0.0737,-0.0758,-0.0738,-0.0708,-0.063,-0.0639,-0.0551,-0.0551,-0.0449,-0.0443,-0.0499,-0.0496,-0.0525,-0.0525,-0.0525,-0.0525,-0.0525,0,-0.0353,-0.0394,-0.0454,-0.0477,-0.0527,-0.0586,-0.063,-0.0675,-0.0712,-0.0717,-0.0758,-0.0741,-0.0727,-0.0675,-0.0633,-0.0521,-0.0555,-0.0453,-0.0422,-0.0532,-0.0533,-0.0497,-0.0495,-0.0523,-0.0524,-0.0524,-0.0524,0,-0.0348,-0.0386,-0.0437,-0.0504,-0.0525,-0.0564,-0.0627,-0.0646,-0.0687,-0.0692,-0.0702,-0.0706,-0.0634,-0.0605,-0.0526,-0.0488,-0.0414,-0.0372,-0.0485,-0.0461,-0.0325,-0.0327,-0.0261,-0.0258,-0.0255,-0.0253,-0.0251,0,-0.0354,-0.0378,-0.0437,-0.0456,-0.0492,-0.0545,-0.0573,-0.0633,-0.064,-0.065,-0.0639,-0.059,-0.0578,-0.0418,-0.0402,-0.0324,-0.0312,-0.0285,-0.0324,-0.0321,-0.0297,-0.0304,-0.031,-0.0246,-0.0246,-0.0245,-0.0244,0,-0.036,-0.0377,-0.0411,-0.0439,-0.0472,-0.0507,-0.0549,-0.0538,-0.0583,-0.0602,-0.0543,-0.0496,-0.041,-0.0355,-0.0287,-0.0241,-0.0312,-0.0256,-0.0263,-0.0299,-0.0302,-0.0283,-0.0292,-0.0234,-0.0236,-0.0237,-0.0237,0,-0.0355,-0.037,-0.0401,-0.0428,-0.0459,-0.0473,-0.0495,-0.0487,-0.0496,-0.0494,-0.0459,-0.0418,-0.0399,-0.0308,-0.025,-0.0189,-0.0185,-0.018,-0.0191,-0.0201,-0.0202,-0.0199,-0.0068,0,0,0,0,0,-0.0349,-0.0366,-0.0387,-0.0421,-0.0445,-0.0465,-0.048,-0.0493,-0.0499,-0.0435,-0.0447,-0.0368,-0.0273,-0.0256,-0.0175,-0.0215,-0.0192,-0.0119,-0.0196,-0.018,-0.0192,-0.0196,0,0,0,0,0,0,-0.035,-0.0372,-0.0382,-0.0406,-0.0421,-0.0452,-0.0457,-0.046,-0.0422,-0.0415,-0.0362,-0.0343,-0.0258,-0.0313,-0.0172,-0.016,-0.0194,-0.0087,-0.0084,-0.0174,-0.0184,-0.0193,-0.0202,0,0,0,0,0]}]]